{"data":{"norad_id":62022,"intl_designator":"2024-213Q","name":"STARLINK-32539","alt_names":[],"object_type":"PAYLOAD","status":"ACTIVE","operator":null,"country":"US","launch_date":"2024-11-18","launch_site_code":"AFWTR","launch_vehicle":null,"mission":null,"orbit_class":"UNKNOWN","rcs_meters":null,"size_class":null,"mass_kg":null,"dimensions":null,"purposes":["comms"],"wikipedia_slug":null,"has_3d_model":false,"image_url":null,"decayed_at":null,"tle_current":{"epoch":"2026-09-21T10:07:40.663488Z","epoch_age_seconds":105878,"freshness":"FRESH","line1":"1 62022U 24213Q   26264.42199842  .00021785  00000+0  65384-3 0  9994","line2":"2 62022  53.1609 325.2063 0001520  66.1446 293.9715 15.34409027103313","mean_motion":15.34409027,"eccentricity":0.000152,"inclination_deg":53.1609,"raan_deg":325.2063,"arg_perigee_deg":66.1446,"mean_anomaly_deg":293.9715,"bstar":0.00065384,"rev_number":10331,"period_min":93.847205970589,"perigee_km":461.63660655394,"apogee_km":463.71621383064,"semimajor_km":6840.8134101923,"source":"CELESTRAK","updated_at":"2026-09-22T09:00:49.484993Z"}}}